Regional Weather Roundup
Issued by NWS Kansas City/Pleasant Hill, MO

Home | Current Version | Previous Version | Text Only | Print | Product List | Glossary On
Versions: 1 2 3 4 5 6 7 8 9 10 11 12 13 14 15 16 17 18 19 20 21 22 23 24 25 26 27 28 29 30 31 32 33 34 35 36 37 38 39 40 41 42 43 44 45 46 47 48 49 50
000
ASUS43 KEAX 021211
RWREAX

WEATHER ROUNDUP FOR EASTERN KANSAS AND NORTHWEST MISSOURI
NATIONAL WEATHER SERVICE KANSAS CITY/PLEASANT HILL MO
600 AM CST MON MAR 02 2015

KSZ040-057-103>105-MOZ028-029-037-043-021300-
...KANSAS CITY METROPOLITAN AREA...

CITY           SKY/WX    TMP DP  RH WIND       PRES   REMARKS
K.C. INTL      PTCLDY    23  17  78 CALM      30.48R
6HR MIN TEMP:  20; 6HR MAX TEMP:  28;

K.C. DOWNTOWN  MOCLDY    23  20  88 CALM      30.50S
6HR MIN TEMP:  21; 6HR MAX TEMP:  27;

LEES SUMMIT    MOCLDY    24  19  81 SE7       30.48R WCI  16
6HR MIN TEMP:  20; 6HR MAX TEMP:  26;

OLATHE - IXD   MOCLDY    20  17  88 S3        30.48F
6HR MIN TEMP:  17; 6HR MAX TEMP:  24;

OLATHE - OJC   MOCLDY    21  18  88 CALM      30.46F
6HR MIN TEMP:  18; 6HR MAX TEMP:  26;

LAWRENCE       MOCLDY    17  15  92 CALM      30.49S

$$

MOZ001>008-011>017-020>025-030>033-038>040-044>046-053-054-021300-
...NORTHERN AND CENTRAL MISSOURI...

CITY           SKY/WX    TMP DP  RH WIND       PRES   REMARKS
ST. JOSEPH     MOCLDY    23  20  88 E3        30.50R
6HR MIN TEMP:  22; 6HR MAX TEMP:  26;

MOSBY          PTSUNNY   19  18  93 CALM      30.50S
WARRENSBURG    MOCLDY    12   9  85 CALM      30.50S
WHITEMAN AFB   CLEAR     10   6  86 CALM      30.48F
6HR MIN TEMP:   6; 6HR MAX TEMP:  17;

CLINTON        MOCLDY    14  10  85 CALM      30.51S
SEDALIA        MOCLDY    15  10  80 CALM      30.51S HAZE
6HR MIN TEMP:  13; 6HR MAX TEMP:  21;

WARSAW         NOT AVBL
MARSHALL       FAIR      18  16  93 CALM      30.52R FOG
CHILLICOTHE      N/A     21  17  84 CALM      30.52R
6HR MIN TEMP:  19; 6HR MAX TEMP:  26;

MOBERLY        CLOUDY    18  14  86 CALM      30.51  FOG
KIRKSVILLE     PTCLDY    20  18  92 NW5       30.50S WCI  13
6HR MIN TEMP:  18; 6HR MAX TEMP:  22;


$$

MOZ041-047>049-056>058-063>065-088>090-097-021300-
...EASTERN AND SOUTHERN MISSOURI...

CITY           SKY/WX    TMP DP  RH WIND       PRES   REMARKS
ST. LOUIS INTL MOCLDY    18  12  77 CALM      30.54R HAZE
6HR MIN TEMP:  13; 6HR MAX TEMP:  22;

SPIRIT OF STL  PTCLDY     7   4  87 SW3       30.54R
COLUMBIA       FOG       18  14  84 CALM      30.50F VSB 1/4
JEFFERSON CITY PTCLDY    12   9  87 CALM      30.54F FOG
MEXICO         PTCLDY     9   9 100 CALM      30.51  FOG
HANNIBAL       MOCLDY    19  16  86 SW3       30.52S
ROLLA          PTCLDY    10   6  84 NE3       30.48R FOG
LEBANON        PTCLDY    19  18  93 E3        30.48S
OSAGE BEACH    CLOUDY    12   9  85 CALM      30.51R
SPRINGFIELD    MOCLDY    23  17  78 E7        30.45S WCI  15
NEVADA         MOCLDY    16  14  93 CALM      30.51S FOG
JOPLIN         PTCLDY    21  17  84 VRB3      30.48R
WEST PLAINS    PTCLDY    23  19  85 NE6       30.47S WCI  16

$$

IAZ060-094-KSZ022-034>040-054-083-096-NEZ052-066-093-021300-
...KANSAS...SOUTHEAST NEBRASKA AND IOWA...

CITY           SKY/WX    TMP DP  RH WIND       PRES   REMARKS
TOPEKA         PTCLDY    20  17  88 CALM      30.49S
6HR MIN TEMP:  20; 6HR MAX TEMP:  23;

MANHATTAN      MOCLDY    21  20  96 CALM      30.45F
EMPORIA        MOCLDY    19  17  92 CALM      30.44S FOG
CHANUTE        MOCLDY    19  17  92 CALM      30.47F
WICHITA        CLOUDY    21  17  84 SE3       30.44R
OMAHA          MOCLDY    19  15  84 E3        30.49R
LINCOLN        PTCLDY    24  15  68 CALM      30.46S
FALLS CITY     CLOUDY    23  20  88 NE3       30.47R
LAMONI         PTCLDY    21  15  78 NE5       30.48S WCI  15
DES MOINES     PTCLDY    19  12  74 CALM      30.51S

$$



USA.gov is the U.S. government's official web portal to all federal, state and local government web resources and services.